Terminal Aerodrome Forecast
Issued by NWS Charleston, WV

Current Version | Previous Version | Graphics & Text | Print | Product List | Glossary Off
Versions: 1 2 3 4 5 6 7 8 9 10 11 12 13 14 15 16 17 18 19 20 21 22 23 24

000
FTUS41 KRLX 030530
TAFCRW
TAF
KCRW 030530Z 0306/0406 00000KT 6SM BR FEW050
     FM031000 00000KT 4SM BR SCT001
     FM031230 00000KT P6SM SCT035
     FM031800 VRB03KT P6SM VCTS BKN035CB
     FM032200 VRB03KT 6SM HZ VCTS SCT035CB
     FM040000 00000KT P6SM SCT035
     FM040200 00000KT 5SM BR SCT045=

USA.gov is the U.S. government's official web portal to all federal, state and local government web resources and services.